Glendive, MT

6:24 AM MST on December 14, 2017 (GMT -0700)
Dawson Community

Weather History for KGDV - January, 2014

Change the Weather History Date:

Friday, January 17, 2014

  Actual Average Record
Temperature  
Mean Temperature 28 °F -  
Max Temperature 41 °F 23 °F 44 °F (2000)
Min Temperature 15 °F 6 °F -22 °F (2016)
Degree Days  
Heating Degree Days 37    
Moisture  
Dew Point 23 °F    
Average Humidity 74    
Maximum Humidity 93    
Minimum Humidity 57    
Precipitation  
Precipitation 0.00 in - - ()
Sea Level Pressure  
Sea Level Pressure 29.95 in    
Wind  
Wind Speed 11 mph (WSW)    
Max Wind Speed 32 mph    
Max Gust Speed 41 mph    
Visibility 10 miles    
Events      
Averages and records for this station are not official NWS values.
T = Trace of Precipitation, MM = Missing Value Source: NWS Daily Summary

Daily Weather History Graph

Daily Weather History Graph

Search for Another Location

Airport or City:

Trip Planner

Search our weather history database for the weather conditions in past years. The results will help you decide how hot, cold, wet, or windy it might be!

Date:

Astronomy

Jan. 17, 2014 Rise Set
Actual Time 7:39 AM MST 4:39 PM MST
Civil Twilight 7:05 AM MST 5:13 PM MST
Nautical Twilight 6:27 AM MST 5:51 PM MST
Astronomical Twilight 5:51 AM MST 6:27 PM MST
Moon 6:38 PM MST (1/17) 7:59 AM MST (1/17)
Length of Visible Light 10h 08m
Length of Day
8h 59m
Full, 98% of the Moon is Illuminated
Jan 17
Full
Jan 23
Last Quarter
Jan 30
New
Feb 6
First Quarter
Feb 14
Full

Hourly Weather History & Observations

Time (MST) Temp. Windchill Dew Point Humidity Pressure Visibility Wind Dir Wind Speed Gust Speed Precip Events Conditions
12:15 AM 19.4 °F 10.4 °F 15.8 °F 86% 30.14 in 10.0 mi South 6.9 mph - N/A   Clear
12:35 AM 19.4 °F 10.4 °F 15.8 °F 86% 30.13 in 10.0 mi SSW 6.9 mph - N/A   Clear
12:55 AM 19.4 °F 10.4 °F 15.8 °F 86% 30.12 in 10.0 mi SSW 6.9 mph - N/A   Clear
1:15 AM 17.6 °F 10.7 °F 15.8 °F 93% 30.11 in 10.0 mi South 4.6 mph - N/A   Clear
1:35 AM 17.6 °F 9.3 °F 15.8 °F 93% 30.11 in 10.0 mi SSE 5.8 mph - N/A   Clear
1:55 AM 15.8 °F 8.6 °F 12.2 °F 86% 30.10 in 10.0 mi SE 4.6 mph - N/A   Clear
2:15 AM 15.8 °F 6.1 °F 12.2 °F 86% 30.09 in 10.0 mi SSE 6.9 mph - N/A   Clear
2:55 AM 15.8 °F 7.2 °F 12.2 °F 86% 30.08 in 10.0 mi SSE 5.8 mph - N/A   Clear
3:15 AM 15.8 °F 6.1 °F 12.2 °F 86% 30.07 in 10.0 mi South 6.9 mph - N/A   Clear
3:35 AM 17.6 °F 8.2 °F 15.8 °F 93% 30.07 in 10.0 mi South 6.9 mph - N/A   Partly Cloudy
4:15 AM 19.4 °F 7.9 °F 15.8 °F 86% 30.04 in 10.0 mi South 10.4 mph - N/A   Scattered Clouds
4:35 AM 19.4 °F 8.6 °F 15.8 °F 86% 30.03 in 10.0 mi South 9.2 mph - N/A   Partly Cloudy
4:55 AM 19.4 °F 10.4 °F 15.8 °F 86% 30.03 in 10.0 mi South 6.9 mph - N/A   Partly Cloudy
5:15 AM 17.6 °F 8.2 °F 15.8 °F 93% 30.02 in 10.0 mi South 6.9 mph - N/A   Clear
5:35 AM 17.6 °F 9.3 °F 14.0 °F 86% 30.02 in 10.0 mi South 5.8 mph - N/A   Partly Cloudy
5:55 AM 19.4 °F 9.5 °F 15.8 °F 86% 30.01 in 10.0 mi SSE 8.1 mph - N/A   Mostly Cloudy
6:15 AM 19.4 °F 8.6 °F 15.8 °F 86% 30.00 in 10.0 mi South 9.2 mph - N/A   Partly Cloudy
6:55 AM 21.2 °F 10.1 °F 19.4 °F 93% 29.98 in 10.0 mi South 10.4 mph - N/A   Scattered Clouds
7:15 AM 21.2 °F 10.1 °F 17.6 °F 86% 29.97 in 10.0 mi SSW 10.4 mph - N/A   Partly Cloudy
7:35 AM 21.2 °F 10.1 °F 17.6 °F 86% 29.97 in 10.0 mi SSW 10.4 mph - N/A   Clear
7:55 AM 21.2 °F 10.1 °F 17.6 °F 86% 29.95 in 10.0 mi SSW 10.4 mph - N/A   Clear
8:35 AM 23.0 °F 13.9 °F 19.4 °F 86% 29.95 in 10.0 mi SSW 8.1 mph - N/A   Mostly Cloudy
8:55 AM 24.8 °F 17.9 °F 19.4 °F 80% 29.95 in 10.0 mi South 5.8 mph - N/A   Partly Cloudy
9:35 AM 26.6 °F 19.1 °F 21.2 °F 80% 29.94 in 10.0 mi South 6.9 mph - N/A   Partly Cloudy
9:55 AM 26.6 °F 21.2 °F 21.2 °F 80% 29.95 in 10.0 mi South 4.6 mph - N/A   Clear
10:15 AM 28.4 °F - 23.0 °F 80% 29.95 in 10.0 mi Calm Calm - N/A   Clear
10:35 AM 28.4 °F 20.4 °F 23.0 °F 80% 29.94 in 10.0 mi SSW 8.1 mph - N/A   Clear
10:55 AM 33.8 °F 27.7 °F 26.6 °F 75% 29.94 in 10.0 mi WSW 6.9 mph - N/A   Clear
11:15 AM 33.8 °F 25.8 °F 26.6 °F 75% 29.90 in 10.0 mi WSW 10.4 mph - N/A   Clear
11:35 AM 37.4 °F 31.4 °F 26.6 °F 65% 29.90 in 10.0 mi WSW 8.1 mph - N/A   Clear
11:55 AM 37.4 °F 30.3 °F 26.6 °F 65% 29.90 in 10.0 mi WSW 10.4 mph - N/A   Clear
12:15 PM 37.4 °F 32.1 °F 24.8 °F 60% 29.89 in 10.0 mi WSW 6.9 mph - N/A   Clear
12:35 PM 39.2 °F 33.6 °F 26.6 °F 61% 29.87 in 10.0 mi SW 8.1 mph - N/A   Partly Cloudy
12:55 PM 39.2 °F 30.8 °F 26.6 °F 61% 29.85 in 10.0 mi West 15.0 mph - N/A   Clear
1:15 PM 39.2 °F 30.5 °F 26.6 °F 61% 29.84 in 10.0 mi West 16.1 mph 20.7 mph N/A   Clear
1:35 PM 39.2 °F 30.2 °F 26.6 °F 61% 29.85 in 10.0 mi West 17.3 mph 26.5 mph N/A   Scattered Clouds
1:55 PM 39.2 °F 30.8 °F 26.6 °F 61% 29.85 in 10.0 mi West 15.0 mph - N/A   Partly Cloudy
2:15 PM 41.0 °F 32.5 °F 26.6 °F 57% 29.85 in 10.0 mi West 17.3 mph 23.0 mph N/A   Mostly Cloudy
2:35 PM 39.2 °F 30.2 °F 26.6 °F 61% 29.85 in 10.0 mi West 17.3 mph 23.0 mph N/A   Overcast
2:55 PM 39.2 °F 30.2 °F 26.6 °F 61% 29.86 in 10.0 mi West 17.3 mph 21.9 mph N/A   Mostly Cloudy
3:15 PM 39.2 °F 30.5 °F 28.4 °F 65% 29.87 in 10.0 mi West 16.1 mph 20.7 mph N/A   Partly Cloudy
3:35 PM 39.2 °F 30.8 °F 26.6 °F 61% 29.88 in 10.0 mi WNW 15.0 mph 21.9 mph N/A   Clear
3:55 PM 39.2 °F 31.2 °F 26.6 °F 61% 29.89 in 10.0 mi WNW 13.8 mph 19.6 mph N/A   Clear
4:15 PM 39.2 °F 30.5 °F 26.6 °F 61% 29.89 in 10.0 mi West 16.1 mph 21.9 mph N/A   Clear
4:35 PM 37.4 °F 27.8 °F 26.6 °F 65% 29.89 in 10.0 mi West 17.3 mph - N/A   Clear
4:55 PM 37.4 °F 27.2 °F 26.6 °F 65% 29.89 in 10.0 mi WNW 19.6 mph 27.6 mph N/A   Clear
5:15 PM 37.4 °F 27.8 °F 26.6 °F 65% 29.89 in 10.0 mi West 17.3 mph 23.0 mph N/A   Clear
5:35 PM 37.4 °F 28.2 °F 26.6 °F 65% 29.89 in 10.0 mi WNW 16.1 mph 25.3 mph N/A   Clear
5:55 PM 37.4 °F 28.2 °F 26.6 °F 65% 29.90 in 10.0 mi WNW 16.1 mph 23.0 mph N/A   Clear
6:15 PM 37.4 °F 27.5 °F 26.6 °F 65% 29.90 in 10.0 mi WNW 18.4 mph - N/A   Clear
6:35 PM 37.4 °F 26.6 °F 26.6 °F 65% 29.90 in 10.0 mi West 21.9 mph 28.8 mph N/A   Clear
6:55 PM 35.6 °F 24.8 °F 26.6 °F 70% 29.90 in 10.0 mi West 19.6 mph 26.5 mph N/A   Clear
7:15 PM 37.4 °F 26.9 °F 26.6 °F 65% 29.89 in 10.0 mi West 20.7 mph 26.5 mph N/A   Clear
7:35 PM 35.6 °F 24.2 °F 26.6 °F 70% 29.90 in 10.0 mi West 21.9 mph 31.1 mph N/A   Clear
7:55 PM 35.6 °F 24.5 °F 26.6 °F 70% 29.90 in 10.0 mi West 20.7 mph 31.1 mph N/A   Clear
8:15 PM 35.6 °F 25.2 °F 26.6 °F 70% 29.90 in 10.0 mi West 18.4 mph 26.5 mph N/A   Clear
8:35 PM 35.6 °F 24.2 °F 26.6 °F 70% 29.90 in 10.0 mi WNW 21.9 mph 31.1 mph N/A   Clear
8:55 PM 35.6 °F 24.5 °F 26.6 °F 70% 29.90 in 10.0 mi WNW 20.7 mph 34.5 mph N/A   Clear
9:15 PM 35.6 °F 24.2 °F 26.6 °F 70% 29.90 in 10.0 mi WNW 21.9 mph 32.2 mph N/A   Clear
9:35 PM 35.6 °F 23.7 °F 26.6 °F 70% 29.90 in 10.0 mi WNW 24.2 mph 33.4 mph N/A   Clear
9:55 PM 35.6 °F 23.2 °F 26.6 °F 70% 29.91 in 10.0 mi WNW 26.5 mph 34.5 mph N/A   Clear
10:15 PM 35.6 °F 22.5 °F 26.6 °F 70% 29.90 in 10.0 mi NW 29.9 mph 38.0 mph N/A   Clear
10:35 PM 33.8 °F 21.3 °F 26.6 °F 75% 29.91 in 10.0 mi WNW 24.2 mph 34.5 mph N/A   Clear
10:55 PM 33.8 °F 20.3 °F 26.6 °F 75% 29.91 in 10.0 mi WNW 28.8 mph 38.0 mph N/A   Clear
11:15 PM 35.6 °F 22.7 °F 26.6 °F 70% 29.91 in 10.0 mi WNW 28.8 mph 39.1 mph N/A   Clear
11:35 PM 35.6 °F 22.1 °F 26.6 °F 70% 29.92 in 10.0 mi WNW 32.2 mph 41.4 mph N/A   Clear
11:55 PM 33.8 °F 20.3 °F 26.6 °F 75% 29.92 in 10.0 mi WNW 28.8 mph 38.0 mph N/A   Clear